Regional Weather Roundup
Issued by NWS Albany, NY

Home | Current Version | Previous Version | Text Only | Print | Product List | Glossary On
Versions: 1 2 3 4 5 6 7 8 9 10 11 12 13 14 15 16 17 18 19 20 21 22 23 24 25 26 27 28 29 30 31 32 33 34 35 36 37 38 39 40 41 42 43 44 45 46 47 48 49 50
000
ASUS41 KALY 280610
RWRALY

NEW YORK STATE HOURLY WEATHER ROUNDUP
NATIONAL WEATHER SERVICE ALBANY NY
100 AM EST TUE FEB 28 2017

NOTE: "FAIR" INDICATES FEW OR NO CLOUDS BELOW 12,000 FEET WITH NO
SIGNIFICANT WEATHER AND/OR NO OBSTRUCTIONS TO VISIBILITY.

NYZ032-033-038>043-046>054-057>066-NYZ062>081-082-084-280700-
EAST


CITY           SKY/WX    TMP DP  RH WIND       PRES   REMARKS
ALBANY         PTCLDY    32  21  64 CALM      30.35S
GLENS FALLS    CLEAR     31  22  69 CALM      30.33R
POUGHKEEPSIE   CLOUDY    35  28  75 CALM      30.37S
NEWBURGH       CLOUDY    39  34  81 CALM      30.38S
MONTGOMERY     CLOUDY    37  30  75 CALM      30.36S
WHITE PLAINS   CLOUDY    41  31  67 CALM      30.37S
ISLIP          CLOUDY    43  38  82 CALM      30.40F
NEW YORK CITY  CLOUDY    50  31  48 S3        30.39S
CENTRAL PARK   CLOUDY    49  31  49 CALM      30.41S
$$

NYZ005>009-017-018-044>046-055-056-280700-
CENTRAL


CITY           SKY/WX    TMP DP  RH WIND       PRES   REMARKS
FULTON         CLOUDY    36  29  75 SE3       30.31S
SYRACUSE       PTCLDY    32  28  85 E3        30.31R
ROME           CLEAR     28  27  96 CALM      30.35R
ELMIRA         CLOUDY    39  31  72 CALM      30.29S
BINGHAMTON     LGT RAIN  37  30  75 S6        30.28F WCI  32
MONTICELLO     CLOUDY   N/A N/A N/A CALM      30.34S
$$

NYZ026>034-041>043-087-280700-
NORTH


CITY           SKY/WX    TMP DP  RH WIND       PRES   REMARKS
WATERTOWN      PTCLDY    32  29  88 SE5       30.31F WCI  27
FORT DRUM      NOT AVBL
OGDENSBURG     FAIR      29  28  96 CALM      30.33R
MASSENA        CLEAR     24  22  91 CALM      30.34R
SARANAC LAKE   MOCLDY    30  26  85 SW3       30.26R
PLATTSBURGH    CLOUDY    30  25  81 CALM      30.32R
$$

NYZ001>004-010>016-019>021-085-280700-
WEST


CITY           SKY/WX    TMP DP  RH WIND       PRES   REMARKS
NIAGARA FALLS  CLOUDY    36  27  69 CALM      30.27S
BUFFALO        CLOUDY    36  25  64 SE3       30.28R
DUNKIRK        CLOUDY    38  31  76 VRB5      30.26R WCI  34
JAMESTOWN      CLOUDY    36  30  80 S6        30.23F WCI  31
WELLSVILLE     CLOUDY    40  34  79 S8        30.25S WCI  34
ROCHESTER      CLOUDY    38  27  64 CALM      30.30R
PENN YAN       MOCLDY    35  24  64 CALM      30.30R
$$

             KEY
       WCI = WIND CHILL INDEX
       VSB = VISIBILITY
       HX  = HEAT INDEX
$$



USA.gov is the U.S. government's official web portal to all federal, state and local government web resources and services.